CRC

Crooked River Challenge - Loft Fly

Station: Inventory - T Race

Distance: 0.1 Miles    

Release: 14-Apr-2019 07:45

Weather Release:    Arrival:

Wind at Release:     Wind at Arrival:

Temp at Release: °    Temp at Arrival: °

Lofts: 147

Birds: 496

Clocked: 495

Good Luck to Everyone!
Drops Pos Breeder Pigeon Name Color Sex Ent Arrival Speed To Win Eligible OpBOpC
1 Eastern Pearl Loft - VA 0531-AU19-EPL 🈚️量 531 BC H 1 08:55:58.87 2.480 00:00:00 Yes
2 Gmpineda 9 Loft - CA 0090-AU19-GMLT G47 X G325 BBWF H 1 08:55:58.96 2.479 00:00:02 Yes
2 P N W Challenge - ID 0019-AU19-PNWC BBSP H 1 08:55:59.99 2.479 00:00:02 Yes
2 Dehesa Valley Classic - CA 19018-AU19-PUEB BC H 1 08:56:00.30 2.479 00:00:02 Yes
5 Ganus Family Loft - IN 0881-AU19-GFL BBWF H 1 08:56:04.01 2.477 00:00:05 Yes
6 D B J Loft - FL 1759-AU19-DBJ BBSP H 1 08:56:08.76 2.474 00:00:10 Yes
6 Yendez Loft - TX 0307-AU19-YEND BB C 1 08:56:09.05 2.474 00:00:10 Yes
8 Yendez Loft - TX 0311-AU19-YEND PENC C 2 08:56:10.08 2.473 00:00:12 Yes
9 Balikbayan Express - WA 0003-AU19-CEYX BC H 1 08:56:14.13 2.471 00:00:16 Yes
10 A P C Loft - TX 19129-AU19-APC BC H 1 08:56:18.50 2.468 00:00:21 Yes
11 Bob Bostwick - CA 0901-AU19-COCO BB C 1 08:56:25.10 2.464 00:00:28 Yes
12 Steven Loft - TX 0012-AU19-YE BBWF H 1 08:56:34.56 2.459 00:00:36 Yes
13 Onlydaybird Syndicate - NV 14509-AU19-AA BB H 1 08:56:35.62 2.458 00:00:38 Yes
14 Dehesa Valley Classic - CA 19606-AU19-DEHE BB H 2 08:56:38.49 2.457 00:00:40 Yes
15 Ganus Family Loft - IN 0852-AU19-GFL BCWF C 2 08:56:39.52 2.456 00:00:42 Yes
16 Ken Family Loft - FL 0015-AU19-XKL BC H 1 08:56:41.31 2.455 00:00:43 Yes
16 Carini / Codd - OR 0030-AU19-CODD BBT H 1 08:56:41.39 2.455 00:00:43 Yes
18 Smith R.P.L. - UT 4517-AU19-SMIT BB C 1 08:56:43.61 2.454 00:00:45 Yes
18 Me Fui ! Vega Loft - FL 0062-AU19-VEGA CHOC H 1 08:56:43.99 2.454 00:00:45 Yes
20 Linda Loft - PA 0640-IF19-LU BBSP H 1 08:56:45.74 2.453 00:00:47 Yes
21 Torres Family Loft - TX 0021-AU19-GTNS GTNS-ANGELLA BB H 1 08:56:46.75 2.452 00:00:49 Yes
21 Steven Loft - TX 0013-AU19-YE BB C 2 08:56:47.01 2.452 00:00:49 Yes
23 Smith R.P.L. - UT 4518-AU19-SMIT BC C 2 08:56:48.05 2.451 00:00:50 Yes
23 Sunshine Loft 2 - SC 0140-AU19-PAK 6502/7445 BC C 1 08:56:49.12 2.451 00:00:50 Yes
25 A P C Loft - TX 19131-AU19-APC BC H 2 08:56:51.39 2.449 00:00:54 Yes
25 A P C Loft - TX 19065-AU19-APC BB H 3 08:56:52.46 2.449 00:00:54 Yes
27 98 M J - PA 0004-AU19-AJ BCWF H 1 08:56:53.50 2.448 00:00:56 Yes
27 Sierra Ranch - CA 0910-AU19-SIER BB H 1 08:56:53.71 2.448 00:00:56 Yes
29 Mystro - MN 13392-AU19-FOYS BCWF H 1 08:56:54.75 2.447 00:00:57 Yes
29 Bryan Maier - PA 0320-IF19-MAIE RDSP H 1 08:56:56.15 2.447 00:00:57 Yes
31 Sunshine Loft 2 - SC 0134-AU19-PAK B U L L E T -2 BB H 2 08:56:57.47 2.446 00:00:59 Yes
32 A P C Loft - TX 19064-AU19-APC BBSP H 4 08:56:58.50 2.445 00:01:01 Yes
32 D B J Loft - FL 1736-AU19-DBJ BCSP H 2 08:56:59.20 2.445 00:01:01 Yes
34 Portland Loft - OR 0510-AU19-JEDD BB C 1 08:57:00.71 2.444 00:01:03 Yes
35 Greek Connection - SC 1221-AU19-GRK JELLE-220 BCWF C 1 08:57:01.79 2.443 00:01:04 Yes
35 Onlydaybird Syndicate - NV 14522-AU19-AA BBSP H 2 08:57:02.27 2.443 00:01:04 Yes
37 ** J-Ireneo Loft ** - CA 0421-AU19-JIR BB C 1 08:57:04.26 2.442 00:01:06 Yes
37 S & J Platt - OR 18210-AU19-PLAT BB C 1 08:57:04.99 2.442 00:01:06 Yes
39 Olongapo-Subic Connection - WA 1346-AU19-GSC YASSI BCSP H 1 08:57:05.32 2.441 00:01:08 Yes
39 Eastern Pearl Loft - VA 0533-AU19-EPL 🈚️量 533 BC C 2 08:57:06.66 2.441 00:01:08 Yes
41 Wolf Den & Family Loft - IL 0007-AU19-WOLF GZ H 1 08:57:07.70 2.440 00:01:10 Yes
41 A P C Loft - TX 19043-AU19-APC BB H 5 08:57:07.72 2.440 00:01:10 Yes
41 Lising Syndicate - CA 28007-AU19-ARPU RD H 1 08:57:07.75 2.440 00:01:10 Yes
41 7 Cha Brothers Loft - MN 0360-AU19-UNIT The One Jr. x Quick Feet BC H 1 08:57:08.63 2.440 00:01:10 Yes
45 Carini / Codd - OR 0915-AU19-CARI BCWF H 2 08:57:11.74 2.438 00:01:13 Yes
46 American Lofts - OR 4615-AU19-CORP BB H 1 08:57:15.34 2.436 00:01:17 Yes
46 Ringor Loft - CA 4696-AU19-JEDD BC C 1 08:57:15.79 2.436 00:01:17 Yes
48 Transilvania Loft - NV 0104-AU19-CIMP BC C 1 08:57:17.53 2.435 00:01:19 Yes
49 Ganus Family Loft - IN 0361-AU19-GFL BB H 3 08:57:20.89 2.433 00:01:22 Yes
50 A F L - GA 0036-IF19-AFL BB C 1 08:57:22.00 2.432 00:01:24 Yes
50 Powerstroke Loft - UT 0501-AU19-PS BB H 1 08:57:22.54 2.432 00:01:24 Yes
50 Marengo Creek Farms - AL 3295-AU19-MCF BB H 1 08:57:22.72 2.432 00:01:24 Yes
50 ** J-Ireneo Loft ** - CA 0409-AU19-JIR BC C 2 08:57:22.80 2.432 00:01:24 Yes
54 Drama Queen Loft - TX 0904-AU19-GCI BC H 1 08:57:23.25 2.431 00:01:26 Yes
54 P N W Challenge - ID 1905-AU19-PAPA BB H 2 08:57:24.69 2.431 00:01:26 Yes
56 Lamonta - OR 58503-AU19-ARPU BBWF C 1 08:57:31.67 2.427 00:01:33 Yes
57 Roger Teeters - WA 4610-AU19-LKC BB H 1 08:57:35.30 2.425 00:01:37 Yes
58 American Lofts - OR 4614-AU19-CORP BBWF C 2 08:57:35.58 2.424 00:01:38 Yes
58 Red Ass Ranch - TX 0413-AU19-RAR BB H 1 08:57:36.68 2.424 00:01:38 Yes
60 Jimmy Zheng Loft - MS 0858-AU19-JZLT BC H 1 08:57:45.71 2.419 00:01:47 Yes
60 Emerson & Donnelly - SC 0200-AU19-MERL BB H 1 08:57:45.80 2.419 00:01:47 Yes
62 Silicon Valley Syndicates - CA 19034-AU19-SVS BC H 1 08:57:46.95 2.418 00:01:49 Yes
62 Irishsyndicatelofts - AZ 0414-IF19-IRIS BC C 1 08:57:47.99 2.418 00:01:49 Yes
64 Ganus Family Loft - IN 0362-AU19-GFL BB C 4 08:57:48.29 2.417 00:01:51 Yes
65 Sierra Ranch - CA 0915-AU19-SIER BB C 2 08:57:51.77 2.415 00:01:55 Yes
65 Linda Loft - PA 0605-IF19-LU BBSP H 2 08:57:53.00 2.415 00:01:55 Yes
67 Filipino-American Pigeon Fanciers Alliance - IL 0145-AU19-FAMP BB H 1 08:57:54.80 2.414 00:01:56 Yes
68 Peters - GA 0008-AU19-PETE PETERS -2 BBSP C 1 08:57:55.85 2.413 00:01:58 Yes
69 D B J Loft - FL 1712-AU19-DBJ BC C 3 08:57:57.57 2.412 00:02:00 Yes
70 A F L - GA 0014-IF19-AFL BB C 2 08:57:59.75 2.411 00:02:02 Yes
70 Tian Loft - FL 15656-AU19-ARPU BBWF H 1 08:57:59.77 2.411 00:02:02 Yes
72 G & L Loft - OR 0514-AU19-WPC BC C 1 08:58:01.79 2.410 00:02:04 Yes
72 Olongapo-Subic Connection - WA 0105-AU19-ARAM OLD NUMBER SEVEN BC H 2 08:58:02.49 2.410 00:02:04 Yes
74 A P C Loft - TX 19012-AU19-APC BBWF C 6 08:58:02.94 2.409 00:02:05 Yes
75 Cherokee Loft - MI 0538-AU19-CHER BC H 1 08:58:04.73 2.408 00:02:07 Yes
76 7 Cha Brothers Loft - MN 0363-AU19-UNIT Turkkon x Bulldozer BB H 2 08:58:06.65 2.407 00:02:09 Yes
77 Tex-Mex Loft - TX 0052-AU19-TXMX Dillinger BB C 1 08:58:08.23 2.406 00:02:11 Yes
78 Cherokee Loft - MI 0514-AU19-CHER BB C 2 08:58:10.65 2.405 00:02:13 Yes
79 Paul Yahiku - OR 19024-AU19-YAHI BBWF H 1 08:58:12.11 2.404 00:02:15 Yes
80 Marengo Creek Farms - AL 3296-AU19-MCF BB C 2 08:58:13.71 2.403 00:02:16 Yes
81 Roger Teeters - WA 4618-AU19-LKC BC H 2 08:58:15.54 2.402 00:02:18 Yes
81 Irishsyndicatelofts - AZ 0464-IF19-IRIS BBWF H 2 08:58:16.58 2.402 00:02:18 Yes
83 A P C Loft - TX 19052-AU19-APC BB H 7 08:58:17.70 2.401 00:02:20 Yes
84 Amer Loft - GA 0098-IF19-AFL BB C 1 08:58:20.07 2.400 00:02:22 Yes
85 Amer Loft - GA 0013-IF19-AFL BB H 2 08:58:22.99 2.398 00:02:26 Yes
85 Da-Dong - WI 1633-AU19-RAC BB H 1 08:58:24.40 2.398 00:02:26 Yes
87 Transilvania Loft - NV 0110-AU19-CIMP DC C 2 08:58:25.56 2.397 00:02:27 Yes
88 Rueter Family Loft - OR 5329-AU19-CORP BB H 1 08:58:26.61 2.396 00:02:29 Yes
88 A P C Loft - TX 19019-AU19-APC BB H 8 08:58:26.63 2.396 00:02:29 Yes
90 Roger Teeters - WA 4611-AU19-LKC BB C 3 08:58:28.39 2.395 00:02:31 Yes
91 Pleasant Task Farm - PA 19007-AU19-PTF BB C 1 08:58:30.81 2.394 00:02:33 Yes
92 Linda Loft - PA 0633-IF19-LU BC H 3 08:58:33.69 2.393 00:02:35 Yes
93 A F L - GA 0069-IF19-AFL BB H 3 08:58:34.15 2.392 00:02:37 Yes
94 Baldwin & Tilson - NC 9026-AU19-TENT BBWF H 1 08:58:37.51 2.390 00:02:40 Yes
95 A-Lo Loft/Nemelka - UT 9025-AU19-NRPL ☯️A-Lo3994xJosphne2 BCWF H 1 08:58:40.66 2.389 00:02:42 Yes
96 K T Loft - IN 0405-AU19-KT BB H 1 08:58:41.83 2.388 00:02:44 Yes
97 Pl Abasolo Famloft - IL 0509-AU19-LCC BB H 1 08:58:44.03 2.387 00:02:46 Yes
98 A-Lo Loft/Nemelka - UT 2883-AU19-FOYS ☯️Gangstaoflovex7010 DC H 2 08:58:45.26 2.386 00:02:48 Yes
99 Sierra Ranch - CA 0922-AU19-SIER BB C 3 08:58:47.24 2.385 00:02:50 Yes
100 Ringor Loft - CA 4694-AU19-JEDD DC H 2 08:58:49.80 2.384 00:02:51 Yes

There are 753 bird records

Note: These Race Results are unofficial and subject to change until verified by the Race Committee and declared final.